Marshfield, WI

1:01 PM CST on February 12, 2016 (GMT -0600)
Marshfield Municipal

Weather History for KMFI - February, 2013

Change the Weather History Date:

Friday, February 15, 2013

  Actual Average Record
Temperature  
Mean Temperature 9 °F -  
Max Temperature 15 °F 27 °F 53 °F (1921)
Min Temperature 3 °F 9 °F -27 °F (1930)
Degree Days  
Heating Degree Days 56    
Moisture  
Dew Point 0 °F    
Average Humidity 68    
Maximum Humidity 76    
Minimum Humidity 59    
Precipitation  
Precipitation 0.00 in - - ()
Sea Level Pressure  
Sea Level Pressure 30.20 in    
Wind  
Wind Speed 9 mph (WNW)    
Max Wind Speed 13 mph    
Max Gust Speed -    
Visibility 10 miles    
Events      
Averages and records for this station are not official NWS values.
T = Trace of Precipitation, MM = Missing Value Source: NWS Daily Summary

Daily Weather History Graph

Daily Weather History Graph

Search for Another Location

Airport or City:

Trip Planner

Search our weather history database for the weather conditions in past years. The results will help you decide how hot, cold, wet, or windy it might be!

Date:

Astronomy

Feb. 15, 2013 Rise Set
Actual Time 7:00 AM CST 5:29 PM CST
Civil Twilight 6:30 AM CST 5:59 PM CST
Nautical Twilight 5:56 AM CST 6:33 PM CST
Astronomical Twilight 5:22 AM CST 7:07 PM CST
Moon 9:20 AM CST (2/15) 11:48 PM CST (2/15)
Length of Visible Light 11h 29m
Length of Day
10h 29m
Waxing Crescent, 30% of the Moon is Illuminated
Feb 15
Waxing Crescent
Feb 17
First Quarter
Feb 25
Full
Mar 4
Last Quarter
Mar 11
New

Hourly Weather History & Observations

Time (CST) Temp. Windchill Dew Point Humidity Pressure Visibility Wind Dir Wind Speed Gust Speed Precip Events Conditions
12:54 AM 10.0 °F -3.7 °F 3.0 °F 73% 30.10 in 10.0 mi NNW 10.4 mph - N/A   Clear
1:54 AM 8.1 °F -4.3 °F 1.0 °F 73% 30.12 in 10.0 mi NW 8.1 mph - N/A   Clear
2:54 AM 8.1 °F -3.2 °F -0.0 °F 70% 30.13 in 10.0 mi WNW 6.9 mph - N/A   Clear
3:54 AM 6.1 °F -4.3 °F -0.0 °F 76% 30.14 in 10.0 mi WNW 5.8 mph - N/A   Clear
4:54 AM 5.0 °F -8.1 °F -0.9 °F 76% 30.15 in 10.0 mi WNW 8.1 mph - N/A   Clear
5:54 AM 6.1 °F -7.8 °F -0.9 °F 73% 30.17 in 10.0 mi WNW 9.2 mph - N/A   Overcast
6:54 AM 6.1 °F -6.8 °F -0.9 °F 73% 30.18 in 10.0 mi WNW 8.1 mph - N/A   Overcast
7:54 AM 7.0 °F -5.7 °F -0.9 °F 70% 30.19 in 10.0 mi WNW 8.1 mph - N/A   Overcast
8:54 AM 8.1 °F -6.2 °F -0.0 °F 70% 30.21 in 10.0 mi WNW 10.4 mph - N/A   Mostly Cloudy
9:54 AM 10.0 °F -3.7 °F 1.9 °F 70% 30.22 in 10.0 mi NW 10.4 mph - N/A   Overcast
10:54 AM 12.9 °F 0.7 °F 3.0 °F 65% 30.22 in 10.0 mi WNW 9.2 mph - N/A   Clear
11:54 AM 12.9 °F -0.2 °F 3.0 °F 65% 30.22 in 10.0 mi WNW 10.4 mph - N/A   Clear
12:54 PM 14.0 °F 1.2 °F 3.9 °F 64% 30.21 in 10.0 mi WNW 10.4 mph - N/A   Clear
1:54 PM 15.1 °F 1.1 °F 3.0 °F 59% 30.20 in 10.0 mi NW 12.7 mph - N/A   Clear
2:54 PM 15.1 °F 1.8 °F 3.9 °F 61% 30.20 in 10.0 mi WNW 11.5 mph - N/A   Clear
3:54 PM 15.1 °F 1.8 °F 3.0 °F 59% 30.22 in 10.0 mi WNW 11.5 mph - N/A   Clear
4:54 PM 12.9 °F -1.6 °F 1.9 °F 62% 30.23 in 10.0 mi WNW 12.7 mph - N/A   Clear
5:54 PM 10.9 °F -1.8 °F -0.0 °F 61% 30.24 in 10.0 mi WNW 9.2 mph - N/A   Clear
6:54 PM 8.1 °F -3.2 °F -2.0 °F 64% 30.25 in 10.0 mi West 6.9 mph - N/A   Clear
7:54 PM 6.1 °F -4.3 °F -2.9 °F 67% 30.25 in 10.0 mi WNW 5.8 mph - N/A   Clear
8:54 PM 3.9 °F -5.3 °F -4.0 °F 70% 30.26 in 10.0 mi WNW 4.6 mph - N/A   Scattered Clouds
9:54 PM 3.9 °F -5.3 °F -4.0 °F 70% 30.25 in 10.0 mi WNW 4.6 mph - N/A   Overcast
10:54 PM 3.9 °F -5.3 °F -2.9 °F 73% 30.24 in 10.0 mi WNW 4.6 mph - N/A   Overcast
11:54 PM 6.1 °F -2.8 °F -0.9 °F 73% 30.23 in 9.0 mi NNW 4.6 mph - N/A   Overcast